Location: Alma
(38.7220°N, 88.9090°W)
Time: 18:01:43
(UTC-06:00)

Vanguard 2 Rocket - Pass Details

Date: 17 November 2019
Orbit: 554 x 3326 km, 32.9° (Epoch: 14 December)

Event Time Altitude Azimuth Distance (km) Brightness Sun altitude
Rises 07:06:00 0° 270° (W) 4,179 9.7 3.7°
Reaches altitude 10° 07:08:49 10° 259° (W) 3,536 9.5 4.2°
Maximum altitude 07:16:46 30° 203° (SSW) 3,084 9.8 5.6°
Drops below altitude 10° 07:28:58 10° 150° (SSE) 5,488 12.2 7.6°
Sets 07:34:48 0° 142° (SE) 6,873 13.0 8.6°
